TimeEST,TemperatureF,Dew PointF,Humidity,Sea Level PressureIn,VisibilityMPH,Wind Direction,Wind SpeedMPH,Gust SpeedMPH,PrecipitationIn,Events,Conditions,WindDirDegrees,DateUTC
12:54 AM,30.9,19.9,64,30.51,10.0,North,9.2,-,N/A,,Clear,360,2013-01-11 05:54:00
1:54 AM,30.9,19.9,64,30.50,10.0,North,5.8,-,N/A,,Clear,10,2013-01-11 06:54:00
2:54 AM,32.0,19.9,61,30.49,10.0,North,4.6,-,N/A,,Clear,350,2013-01-11 07:54:00
3:54 AM,32.0,19.9,61,30.48,10.0,North,5.8,-,N/A,,Clear,10,2013-01-11 08:54:00
4:54 AM,32.0,19.9,61,30.47,10.0,NE,3.5,-,N/A,,Clear,40,2013-01-11 09:54:00
5:54 AM,32.0,19.9,61,30.47,10.0,NE,4.6,-,N/A,,Clear,40,2013-01-11 10:54:00
6:54 AM,32.0,19.9,61,30.49,10.0,NNE,4.6,-,N/A,,Clear,30,2013-01-11 11:54:00
7:54 AM,30.2,19.4,64,30.45,10.0,ENE,5.8,-,N/A,,Clear,60,2013-01-11 12:54:00
8:54 AM,32.0,19.9,61,30.49,10.0,ENE,5.8,-,N/A,,Clear,70,2013-01-11 13:54:00
9:54 AM,32.0,21.0,64,30.48,10.0,East,3.5,-,N/A,,Clear,100,2013-01-11 14:54:00
10:54 AM,33.1,21.9,64,30.45,10.0,ESE,3.5,-,N/A,,Clear,110,2013-01-11 15:54:00
11:54 AM,33.1,23.0,66,30.43,10.0,South,6.9,-,N/A,,Clear,190,2013-01-11 16:54:00
12:54 PM,34.0,24.1,67,30.39,10.0,SSE,5.8,-,N/A,,Mostly Cloudy,160,2013-01-11 17:54:00
1:54 PM,35.1,25.0,67,30.38,10.0,SSE,3.5,-,N/A,,Mostly Cloudy,150,2013-01-11 18:54:00
2:54 PM,35.1,26.1,70,30.35,10.0,SE,5.8,-,N/A,,Overcast,140,2013-01-11 19:54:00
3:01 PM,35.1,26.1,70,30.31,10.0,SE,6.9,-,N/A,,Overcast,140,2013-01-11 20:01:00
3:09 PM,35.1,26.1,70,30.31,10.0,SSE,5.8,-,N/A,,Overcast,150,2013-01-11 20:09:00
3:54 PM,35.1,26.1,70,30.33,10.0,SSE,5.8,-,N/A,,Overcast,150,2013-01-11 20:54:00
4:25 PM,34.0,27.0,75,30.28,10.0,SSE,4.6,-,0.00,Rain,Light Rain,160,2013-01-11 21:25:00
4:54 PM,34.0,27.0,75,30.31,10.0,SE,4.6,-,0.00,Rain,Light Rain,140,2013-01-11 21:54:00
5:54 PM,33.1,28.9,85,30.30,10.0,SE,5.8,-,0.02,Rain,Light Rain,140,2013-01-11 22:54:00
6:41 PM,33.1,30.0,89,30.23,5.0,SSE,8.1,-,0.02,Rain,Light Rain,150,2013-01-11 23:41:00
6:54 PM,33.1,30.0,89,30.27,10.0,SSE,8.1,-,0.02,Rain,Light Rain,160,2013-01-11 23:54:00
7:04 PM,33.1,30.0,89,30.23,10.0,SSE,6.9,-,0.00,,Overcast,160,2013-01-12 00:04:00
7:14 PM,33.1,30.0,89,30.22,9.0,SSE,6.9,-,0.00,Rain,Light Rain,160,2013-01-12 00:14:00
7:27 PM,33.1,30.0,89,30.22,9.0,SSE,6.9,-,0.01,Rain,Light Rain,150,2013-01-12 00:27:00
7:33 PM,33.1,30.0,89,30.22,8.0,SSE,8.1,-,0.01,Rain,Light Rain,150,2013-01-12 00:33:00
7:54 PM,33.1,30.9,92,30.26,6.0,SSE,6.9,-,0.02,Rain,Light Rain,160,2013-01-12 00:54:00
8:23 PM,33.1,30.9,92,30.21,3.0,SE,6.9,-,0.02,Rain,Light Rain,140,2013-01-12 01:23:00
8:32 PM,33.1,30.9,92,30.20,1.8,SE,5.8,-,0.02,Rain,Light Rain,140,2013-01-12 01:32:00
8:54 PM,33.1,32.0,96,30.23,1.5,SSE,6.9,-,0.05,Rain,Light Rain,150,2013-01-12 01:54:00
9:33 PM,33.1,32.0,96,30.19,0.5,SSE,6.9,-,0.01,Fog-Rain,Light Rain,150,2013-01-12 02:33:00
9:42 PM,33.1,32.0,96,30.19,0.2,SE,5.8,-,0.02,Fog-Rain,Light Rain,140,2013-01-12 02:42:00
9:54 PM,33.1,32.0,96,30.22,0.2,SE,6.9,-,0.02,Fog,Fog,140,2013-01-12 02:54:00
10:54 PM,34.0,34.0,100,30.22,0.2,Calm,Calm,-,0.00,Fog-Rain,Light Rain,0,2013-01-12 03:54:00
11:54 PM,34.0,33.1,96,30.21,0.2,ESE,4.6,-,0.01,Fog,Fog,120,2013-01-12 04:54:00